Chatham, MA

4:47 PM EDT on May 24, 2017 (GMT -0400)
Chatham Municipal

Weather History for KCQX - September, 2012

Change the Weather History Date:

Monday, September 24, 2012

  Actual Average Record
Temperature  
Mean Temperature 58 °F -  
Max Temperature 64 °F 66 °F 76 °F (1984)
Min Temperature 51 °F 53 °F 42 °F (1998)
Degree Days  
Heating Degree Days 8    
Growing Degree Days 8 (Base 50)    
Moisture  
Dew Point 44 °F    
Average Humidity 65    
Maximum Humidity 80    
Minimum Humidity 38    
Precipitation  
Precipitation 0.00 in - - ()
Sea Level Pressure  
Sea Level Pressure 30.11 in    
Wind  
Wind Speed 2 mph (WNW)    
Max Wind Speed 8 mph    
Max Gust Speed -    
Visibility 10 miles    
Events      
Averages and records for this station are not official NWS values.
T = Trace of Precipitation, MM = Missing Value Source: NWS Daily Summary

Daily Weather History Graph

Daily Weather History Graph

Search for Another Location

Airport or City:

Trip Planner

Search our weather history database for the weather conditions in past years. The results will help you decide how hot, cold, wet, or windy it might be!

Date:

Astronomy

Sep. 24, 2012 Rise Set
Actual Time 6:29 AM EDT 6:32 PM EDT
Civil Twilight 6:02 AM EDT 7:00 PM EDT
Nautical Twilight 5:29 AM EDT 7:32 PM EDT
Astronomical Twilight 4:56 AM EDT 8:05 PM EDT
Moon 3:20 PM EDT 12:38 AM EDT
Length of Visible Light 12h 58m
Length of Day
12h 03m
Waxing Gibbous, 70% of the Moon is Illuminated
Sep 24
Waxing Gibbous
Sep 29
Full
Oct 8
Last Quarter
Oct 15
New
Oct 21
First Quarter

Hourly Weather History & Observations

Time (EDT) Temp. Dew Point Humidity Pressure Visibility Wind Dir Wind Speed Gust Speed Precip Events Conditions
1:52 AM 53.1 °F 46.0 °F 77% 30.09 in 10.0 mi Calm Calm - N/A   Clear
2:52 AM 54.0 °F 46.0 °F 75% 30.09 in 10.0 mi Calm Calm - N/A   Mostly Cloudy
3:52 AM 53.1 °F 45.0 °F 74% 30.09 in 10.0 mi Calm Calm - N/A   Mostly Cloudy
4:52 AM 51.1 °F 44.1 °F 77% 30.09 in 10.0 mi Calm Calm - N/A   Partly Cloudy
5:52 AM 51.1 °F 45.0 °F 80% 30.09 in 10.0 mi Variable 3.5 mph - N/A   Clear
6:52 AM 52.0 °F 45.0 °F 77% 30.10 in 10.0 mi NNW 3.5 mph - N/A   Clear
7:52 AM 57.0 °F 46.9 °F 69% 30.11 in 10.0 mi Variable 3.5 mph - N/A   Clear
8:52 AM 59.0 °F 46.9 °F 64% 30.12 in 10.0 mi NNW 6.9 mph - N/A   Clear
9:52 AM 62.1 °F 46.0 °F 56% 30.12 in 10.0 mi Variable 4.6 mph - N/A   Clear
10:52 AM 63.0 °F 45.0 °F 52% 30.12 in 10.0 mi Variable 5.8 mph - N/A   Clear
11:52 AM 64.0 °F 43.0 °F 46% 30.12 in 10.0 mi Variable 6.9 mph - N/A   Clear
1:52 PM 64.9 °F 39.0 °F 39% 30.09 in 10.0 mi NW 8.1 mph - N/A   Clear
2:52 PM 64.0 °F 37.9 °F 38% 30.09 in 10.0 mi Variable 3.5 mph - N/A   Partly Cloudy
3:52 PM 63.0 °F 41.0 °F 45% 30.09 in 10.0 mi WNW 3.5 mph - N/A   Mostly Cloudy
4:52 PM 64.0 °F 42.1 °F 45% 30.09 in 10.0 mi WNW 3.5 mph - N/A   Clear
5:52 PM 60.1 °F 44.1 °F 55% 30.09 in 10.0 mi Calm Calm - N/A   Clear
6:52 PM 55.0 °F 45.0 °F 69% 30.09 in 10.0 mi Calm Calm - N/A   Clear
7:52 PM 54.0 °F 45.0 °F 72% 30.11 in 10.0 mi Calm Calm - N/A   Clear
8:52 PM 54.0 °F 45.0 °F 72% 30.12 in 10.0 mi West 3.5 mph - N/A   Clear
9:52 PM 52.0 °F 46.0 °F 80% 30.13 in 10.0 mi Calm Calm - N/A   Clear
10:52 PM 51.1 °F 45.0 °F 80% 30.14 in 10.0 mi West 3.5 mph - N/A   Clear
11:52 PM 51.1 °F 44.1 °F 77% 30.14 in 10.0 mi Calm Calm - N/A   Clear